This is the latest recevied weather packets stored in our database for station/object WK1F-2. If no packets are shown the sender has not sent any weather packets the latest 10 day(s).
| Time | Temp. | Humidity | Pressure | Rain* | Wind** | Luminosity | Snow |
|---|---|---|---|---|---|---|---|
| 1777733216 | 17.78° C | 97% | 1009.5 hPa | 6.35 mm | - | - | - |
| 1777732916 | 17.78° C | 96% | 1010.2 hPa | 5.33 mm | - | - | - |
| 1777732616 | 17.78° C | 96% | 1009.8 hPa | 5.08 mm | - | - | - |
| 1777732316 | 17.78° C | 96% | 1010.2 hPa | 3.81 mm | - | - | - |
| 1777732016 | 17.78° C | 96% | 1010.2 hPa | 2.79 mm | - | - | - |
| 1777731716 | 17.78° C | 96% | 1010.2 hPa | 2.29 mm | - | - | - |
| 1777731416 | 17.78° C | 96% | 1010 hPa | 2.03 mm | - | - | - |
| 1777731116 | 17.78° C | 96% | 1009.9 hPa | 1.52 mm | - | - | - |
| 1777730516 | 17.78° C | 95% | 1010.1 hPa | 0.76 mm | - | - | - |
| 1777730216 | 17.78° C | 94% | 1010.7 hPa | 0.51 mm | - | - | - |
| 1777729916 | 17.78° C | 93% | 1010.6 hPa | 0.51 mm | - | - | - |
| 1777729616 | 17.78° C | 92% | 1010.2 hPa | 0.51 mm | - | - | - |
| 1777729316 | 17.78° C | 91% | 1010.1 hPa | 0.51 mm | - | - | - |
| 1777729016 | 17.78° C | 89% | 1010.5 hPa | 0.25 mm | - | - | - |
| 1777728715 | 17.78° C | 87% | 1011 hPa | 0 mm | - | - | - |
| 1777728415 | 18.33° C | 86% | 1011.1 hPa | 0 mm | - | - | - |
| 1777728116 | 18.33° C | 86% | 1010.7 hPa | 0 mm | - | - | - |
| 1777727816 | 18.33° C | 86% | 1010.9 hPa | 0 mm | - | - | - |
| 1777727515 | 18.33° C | 86% | 1011 hPa | 0 mm | - | - | - |
| 1777727215 | 18.33° C | 86% | 1010.6 hPa | 0 mm | - | - | - |
| 1777726915 | 18.33° C | 86% | 1010.6 hPa | 0 mm | - | - | - |
| 1777726615 | 18.33° C | 85% | 1010.3 hPa | 0 mm | - | - | - |
| 1777726315 | 18.33° C | 85% | 1009.6 hPa | 0 mm | - | - | - |
| 1777726015 | 18.33° C | 85% | 1010.1 hPa | 0 mm | - | - | - |
| 1777725715 | 18.33° C | 85% | 1010.1 hPa | 0 mm | - | - | - |
* Rain latest hour (hover to see other rain measurements)
** Current wind speed in m/s (hover to see current wind gust speed)